User: anonymous   Login
Location: Young's Pond
(41.2695°N, 72.7766°W)
Time: 20:37:48
(UTC-05:00)
Language:

Spot 4 - Orbit

View from above orbital plane
View from above orbital plane
View from above satellite
View from above satellite

Ground track
Ground track

The orbit data is extracted from the following two-line orbital elements,

1 25260U 98017A   14355.56738597  .00000805  00000-0  20561-3 0  5286
2 25260 098.4405 060.9052 0013166 177.9280 182.1976 14.53133759869873
Epoch (UTC): 21 December 2014 13:37:02
Eccentricity: 0.0013166
inclination: 98.4405°
perigee height: 706 km
apogee height: 725 km
right ascension of ascending node: 60.9052°
argument of perigee: 177.9280°
revolutions per day: 14.53133759
mean anomaly at epoch: 182.1976°
orbit number at epoch: 86987

The dashed part of the orbit path shows where the satellite is in the earth's shadow,  

DLR